Time,TemperatureF,DewpointF,PressureIn,WindDirection,WindDirectionDegrees,WindSpeedMPH,WindSpeedGustMPH,Humidity,HourlyPrecipIn,Conditions,Clouds,dailyrainin,SolarRadiationWatts/m^2,SoftwareType,DateUTC
2013-05-06 13:11:00,-999.0,-99.9,29.96,WNW,299,11.0,0.0,-999,-99.99,,,-99.99,0.000000,,2013-05-06 20:11:00,
2013-05-06 13:22:00,-999.0,-99.9,29.96,WNW,299,11.0,0.0,-999,-99.99,,,-99.99,0.000000,,2013-05-06 20:22:00,
2013-05-06 13:32:00,-999.0,-99.9,29.96,WNW,299,11.0,0.0,-999,-99.99,,,-99.99,0.000000,,2013-05-06 20:32:00,
2013-05-06 13:42:00,-999.0,-99.9,29.96,WNW,299,11.0,0.0,-999,-99.99,,,-99.99,0.000000,,2013-05-06 20:42:00,
2013-05-06 14:11:00,-999.0,-99.9,29.97,WNW,292,8.0,0.0,-999,-99.99,,,-99.99,856.000000,,2013-05-06 21:11:00,
2013-05-06 14:22:00,-999.0,-99.9,29.97,WNW,292,8.0,0.0,-999,-99.99,,,-99.99,856.000000,,2013-05-06 21:22:00,
2013-05-06 14:33:00,-999.0,-99.9,29.97,WNW,292,8.0,0.0,-999,-99.99,,,-99.99,856.000000,,2013-05-06 21:33:00,
2013-05-06 14:43:00,-999.0,-99.9,29.97,WNW,292,8.0,0.0,-999,-99.99,,,-99.99,856.000000,,2013-05-06 21:43:00,
2013-05-06 14:45:00,-999.0,-99.9,29.97,West,270,7.0,15.0,-999,-99.99,,,-99.99,626.000000,,2013-05-06 21:45:00,
2013-05-06 15:12:00,-999.0,-99.9,29.97,West,270,7.0,15.0,-999,-99.99,,,-99.99,626.000000,,2013-05-06 22:12:00,
2013-05-06 15:22:00,-999.0,-99.9,29.97,West,270,7.0,15.0,-999,-99.99,,,-99.99,626.000000,,2013-05-06 22:22:00,
2013-05-06 15:33:00,-999.0,-99.9,29.97,West,270,7.0,15.0,-999,-99.99,,,-99.99,626.000000,,2013-05-06 22:33:00,
2013-05-06 16:12:00,-999.0,-99.9,29.97,NW,323,7.0,14.0,-999,-99.99,,,-99.99,645.000000,,2013-05-06 23:12:00,
2013-05-06 16:22:00,-999.0,-99.9,29.97,NW,323,7.0,14.0,-999,-99.99,,,-99.99,645.000000,,2013-05-06 23:22:00,
2013-05-06 16:32:00,-999.0,-99.9,29.97,NW,323,7.0,14.0,-999,-99.99,,,-99.99,645.000000,,2013-05-06 23:32:00,
2013-05-06 16:42:00,-999.0,-99.9,29.97,NW,323,7.0,14.0,-999,-99.99,,,-99.99,645.000000,,2013-05-06 23:42:00,
2013-05-06 17:12:00,-999.0,-99.9,29.96,NW,304,10.0,15.0,-999,-99.99,,,-99.99,728.000000,,2013-05-07 00:12:00,
2013-05-06 17:22:00,-999.0,-99.9,29.96,NW,304,10.0,15.0,-999,-99.99,,,-99.99,728.000000,,2013-05-07 00:22:00,
2013-05-06 17:32:00,-999.0,-99.9,29.96,NW,304,10.0,15.0,-999,-99.99,,,-99.99,728.000000,,2013-05-07 00:32:00,
2013-05-06 17:42:00,-999.0,-99.9,29.96,NW,304,10.0,15.0,-999,-99.99,,,-99.99,728.000000,,2013-05-07 00:42:00,
2013-05-06 18:11:00,-999.0,-99.9,29.98,North,354,6.0,16.0,-999,-99.99,,,-99.99,210.000000,,2013-05-07 01:11:00,
2013-05-06 18:21:00,-999.0,-99.9,29.98,North,354,6.0,16.0,-999,-99.99,,,-99.99,210.000000,,2013-05-07 01:21:00,
2013-05-06 18:32:00,-999.0,-99.9,29.98,North,354,6.0,16.0,-999,-99.99,,,-99.99,210.000000,,2013-05-07 01:32:00,
2013-05-06 18:42:00,-999.0,-99.9,29.98,North,354,6.0,16.0,-999,-99.99,,,-99.99,210.000000,,2013-05-07 01:42:00,
2013-05-06 19:11:00,-999.0,-99.9,29.99,NNE,12,6.0,14.0,-999,-99.99,,,-99.99,82.000000,,2013-05-07 02:11:00,
2013-05-06 19:22:00,-999.0,-99.9,29.99,NNE,12,6.0,14.0,-999,-99.99,,,-99.99,82.000000,,2013-05-07 02:22:00,
2013-05-06 19:32:00,-999.0,-99.9,29.99,NNE,12,6.0,14.0,-999,-99.99,,,-99.99,82.000000,,2013-05-07 02:32:00,
2013-05-06 19:42:00,-999.0,-99.9,29.99,NNE,12,6.0,14.0,-999,-99.99,,,-99.99,82.000000,,2013-05-07 02:42:00,
2013-05-06 20:12:00,-999.0,-99.9,29.99,NNE,19,8.0,11.0,-999,-99.99,,,-99.99,37.000000,,2013-05-07 03:12:00,
2013-05-06 20:22:00,-999.0,-99.9,29.99,NNE,19,8.0,11.0,-999,-99.99,,,-99.99,37.000000,,2013-05-07 03:22:00,
2013-05-06 20:33:00,-999.0,-99.9,29.99,NNE,19,8.0,11.0,-999,-99.99,,,-99.99,37.000000,,2013-05-07 03:33:00,
2013-05-06 20:43:00,-999.0,-99.9,29.99,NNE,19,8.0,11.0,-999,-99.99,,,-99.99,37.000000,,2013-05-07 03:43:00,
2013-05-06 21:12:00,-999.0,-99.9,29.99,North,351,6.0,13.0,-999,-99.99,,,-99.99,1.000000,,2013-05-07 04:12:00,
2013-05-06 21:23:00,-999.0,-99.9,29.99,North,351,6.0,13.0,-999,-99.99,,,-99.99,1.000000,,2013-05-07 04:23:00,
2013-05-06 21:33:00,-999.0,-99.9,29.99,North,351,6.0,13.0,-999,-99.99,,,-99.99,1.000000,,2013-05-07 04:33:00,
2013-05-06 21:42:00,-999.0,-99.9,29.99,North,351,6.0,13.0,-999,-99.99,,,-99.99,1.000000,,2013-05-07 04:42:00,
2013-05-06 22:12:00,-999.0,-99.9,30.00,North,0,0.0,11.0,-999,-99.99,,,-99.99,0.000000,,2013-05-07 05:12:00,
2013-05-06 22:22:00,-999.0,-99.9,30.00,North,0,0.0,11.0,-999,-99.99,,,-99.99,0.000000,,2013-05-07 05:22:00,
2013-05-06 22:32:00,-999.0,-99.9,30.00,North,0,0.0,11.0,-999,-99.99,,,-99.99,0.000000,,2013-05-07 05:32:00,
2013-05-06 22:42:00,-999.0,-99.9,30.00,North,0,0.0,11.0,-999,-99.99,,,-99.99,0.000000,,2013-05-07 05:42:00,
2013-05-06 23:12:00,-999.0,-99.9,30.02,North,5,4.0,9.0,-999,-99.99,,,-99.99,0.000000,,2013-05-07 06:12:00,
2013-05-06 23:22:00,-999.0,-99.9,30.02,North,5,4.0,9.0,-999,-99.99,,,-99.99,0.000000,,2013-05-07 06:22:00,
2013-05-06 23:32:00,-999.0,-99.9,30.02,North,5,4.0,9.0,-999,-99.99,,,-99.99,0.000000,,2013-05-07 06:32:00,
2013-05-06 23:42:00,-999.0,-99.9,30.02,North,5,4.0,9.0,-999,-99.99,,,-99.99,0.000000,,2013-05-07 06:42:00,